Weather History for KFLG - August, 2012

Change the Weather History Date:

Tuesday, August 28, 2012

  Actual Average Record
Temperature  
Mean Temperature 66 °F 63 °F  
Max Temperature 81 °F 77 °F 89 °F (1948)
Min Temperature 50 °F 48 °F 33 °F (1920)
Degree Days  
Heating Degree Days 0 3  
Month to date heating degree days 18 47  
Since 1 June heating degree days 106  
Since 1 July heating degree days 34 79  
Cooling Degree Days 1 0  
Month to date cooling degree days 55 34  
Year to date cooling degree days 161 115  
Since 1 June cooling degree days 161  
Growing Degree Days 15 (Base 50)    
Moisture  
Dew Point 51 °F    
Average Humidity 62    
Maximum Humidity 89    
Minimum Humidity 35    
Precipitation  
Precipitation 0.07 in 0.10 in 2.28 in (1951)
Month to date precipitation 2.59 2.84  
Year to date precipitation 10.50 13.92  
Snow  
Snow 0.00 in 0.00 in 0.00 in (2002)
Month to date snowfall 0.0 0.0  
Since 1 July snowfall 0.0 0.0  
Snow Depth 0.00 in    
Sea Level Pressure  
Sea Level Pressure 30.08 in    
Wind  
Wind Speed 2 mph (SW)    
Max Wind Speed 15 mph    
Max Gust Speed 17 mph    
Visibility 10 miles    
Events Rain    
T = Trace of Precipitation, MM = Missing Value Source: NWS Daily Summary

Daily Weather History Graph

Daily Weather History Graph

Search for Another Location

Airport or City:

Trip Planner

Search our weather history database for the weather conditions in past years. The results will help you decide how hot, cold, wet, or windy it might be!

Date:

Astronomy

Aug. 28, 2012 Rise Set
Actual Time 5:56 AM MST 6:58 PM MST
Civil Twilight 5:30 AM MST 7:24 PM MST
Nautical Twilight 4:59 AM MST 7:54 PM MST
Astronomical Twilight 4:27 AM MST 8:26 PM MST
Moon 4:59 PM MST (8/28) 2:54 AM MST (8/28)
Length of Visible Light 13h 53m
Length of Day
13h 01m
Waxing Gibbous, 91% of the Moon is Illuminated
Aug 28
Waxing Gibbous
Aug 31
Full
Sep 8
Last Quarter
Sep 15
New
Sep 22
First Quarter

Hourly Weather History & Observations

Time (MST) Temp. Dew Point Humidity Pressure Visibility Wind Dir Wind Speed Gust Speed Precip Events Conditions
12:57 AM 53.1 °F 48.9 °F 86% 30.10 in 10.0 mi Calm Calm - N/A   Clear
1:57 AM 52.0 °F 48.0 °F 86% 30.12 in 10.0 mi Calm Calm - N/A   Clear
2:57 AM 51.1 °F 48.0 °F 89% 30.11 in 10.0 mi Calm Calm - N/A   Clear
3:57 AM 51.1 °F 48.0 °F 89% 30.09 in 10.0 mi Calm Calm - N/A   Clear
4:57 AM 50.0 °F 46.9 °F 89% 30.11 in 10.0 mi Calm Calm - N/A   Clear
6:57 AM 55.0 °F 50.0 °F 83% 30.14 in 10.0 mi Calm Calm - N/A   Clear
7:57 AM 64.0 °F 51.1 °F 63% 30.14 in 10.0 mi Calm Calm - N/A   Clear
8:57 AM 71.1 °F 53.1 °F 53% 30.13 in 10.0 mi SSW 8.1 mph - N/A   Clear
9:57 AM 73.9 °F 52.0 °F 46% 30.13 in 10.0 mi South 6.9 mph - N/A   Clear
10:57 AM 77.0 °F 50.0 °F 39% 30.13 in 10.0 mi SW 9.2 mph - N/A   Clear
11:57 AM 79.0 °F 50.0 °F 36% 30.10 in 10.0 mi Calm Calm - N/A   Partly Cloudy
12:57 PM 79.0 °F 48.9 °F 35% 30.09 in 10.0 mi Variable 4.6 mph - N/A   Mostly Cloudy
1:57 PM 69.1 °F 59.0 °F 70% 30.12 in 9.0 mi NNE 4.6 mph - 0.02 in Rain Light Rain
2:57 PM 78.1 °F 55.9 °F 46% 30.05 in 10.0 mi Calm Calm - 0.05 in   Partly Cloudy
3:57 PM 80.1 °F 51.1 °F 36% 30.02 in 10.0 mi SW 10.4 mph - N/A   Mostly Cloudy
4:57 PM 77.0 °F 50.0 °F 39% 30.02 in 10.0 mi West 9.2 mph - N/A   Clear
5:57 PM 77.0 °F 50.0 °F 39% 30.02 in 10.0 mi Calm Calm - N/A   Clear
6:57 PM 70.0 °F 55.0 °F 59% 30.04 in 10.0 mi Calm Calm - N/A   Clear
7:57 PM 64.9 °F 54.0 °F 68% 30.03 in 10.0 mi Calm Calm - N/A   Clear
8:57 PM 62.1 °F 53.1 °F 72% 30.03 in 10.0 mi Calm Calm - N/A   Clear
9:57 PM 57.9 °F 51.1 °F 78% 30.04 in 10.0 mi Calm Calm - N/A   Clear
10:57 PM 57.0 °F 51.1 °F 81% 30.03 in 10.0 mi Calm Calm - N/A   Clear
11:57 PM 55.9 °F 51.1 °F 84% 30.03 in 10.0 mi Calm Calm - N/A   Clear